weather.gov     
National Weather Service

Regional Weather Roundup
NWS Homepage
This page is being discontinued on March 12, 2014.
The same data is available at this site. Please update your bookmarks.
Thank you, and we apologize for the inconvenience.
Please send an email to SR-SRH.Webmaster@noaa.gov with any concerns.


Current Version
Previous Version:    01  02  03  04  05  06  07  08  09  10  11  12  13  14  15  16  17  18  19  20  21  22  23  24  25  26  27  28  29  30  
   31  32  33  34  35  36  37  38  39  40  41  42  43  44  45  46  47  48  49  50  51  52  53  54  55  56  57  58  59  60  
[Printable]
959
ASCA44 KEWX 011120
RWRMX

LATIN AMERICA AND CARIBBEAN REGIONAL WEATHER ROUNDUP
NATIONAL WEATHER SERVICE AUSTIN/SAN ANTONIO TX
500 AM CST SUN FEB 01 2015

NOTE: "FAIR" INDICATED FEW OR NO CLOUDS BELOW 12,000 FEET WITH NO
SIGNIFICANT WEATHER AND/OR OBSTRUCTIONS TO VISIBILITY.

BAJA CALIFORNIA

CITY           SKY/WX    TMP DP  RH WIND       PRES   REMARKS
TIJUANA        CLEAR     52  48  87 CALM      30.04R

NORTHWESTERN MEXICO

CITY           SKY/WX    TMP DP  RH WIND       PRES   REMARKS

NORTHEASTERN MEXICO

CITY           SKY/WX    TMP DP  RH WIND       PRES   REMARKS
MONTERREY      CLEAR     57  55  94 NW6       29.88F FOG
TORREON        MOCLDY    57  46  67 CALM      29.97
CD. VICTORIA   PTCLDY    63  61  94 S12       29.92S

WESTERN MEXICO

CITY           SKY/WX    TMP DP  RH WIND       PRES   REMARKS
DEL BAJIO      RAIN      52  48  87 CALM      30.24R
GUADALAJARA    LGT RAIN  55  48  76 N2        30.14F
MAZATLAN       CLOUDY    63  59  88 N7        29.87R
P. VALLARTA    RAIN      70  68  94 CALM      29.90S

CENTRAL MEXICO

CITY           SKY/WX    TMP DP  RH WIND       PRES   REMARKS
MEXICO CITY    CLEAR     50  36  57 CALM      30.24S
MORELIA        PTCLDY    52  45  76 CALM      30.17S
QUERETARO      PTCLDY    48  39  71 CALM      30.21S
S. LUIS POTOSI PTCLDY    48  43  81 CALM      30.12F
TOLUCA         CLEAR     34  30  86 CALM      30.30F

SOUTHERN MEXICO

CITY           SKY/WX    TMP DP  RH WIND       PRES   REMARKS
ACAPULCO       CLEAR     70  63  78 CALM      29.89F

YUCATAN PENINSULA

CITY           SKY/WX    TMP DP  RH WIND       PRES   REMARKS
CANCUN         CLEAR     73  63  68 E7        30.02S
CD. DEL CARMEN CLEAR     72  66  83 SE18      29.93
COZUMEL          N/A    N/A N/A N/A MISG        N/A
MERIDA         CLEAR     64  59  82 E6        30.00S
TAPACHULA      CLEAR     73  70  88 CALM      29.92R
VILLAHERMOSA   CLEAR     63  61  94 CALM      29.94

CENTRAL AMERICA

CITY           SKY/WX    TMP DP  RH WIND       PRES   REMARKS
BELIZE CITY    PTCLDY    70  68  94 CALM      29.98
MANAGUA        MOSUNNY   73  66  78 SE7       29.89S

CARIBBEAN

CITY           SKY/WX    TMP DP  RH WIND       PRES   REMARKS
ARUBA          PTCLDY    79  73  83 E18       29.92R
CURACAO        MOCLDY    79  75  89 E12       29.97R
KINGSTON       PTCLDY    77  68  73 N5        29.97R
NASSAU         PTCLDY    66  54  63 E7        30.21R
SAN JUAN       MOCLDY    77  70  78 NE13G22   30.07R
SANTO DOMINGO  LGT RAIN  70  68  94 NE9         N/A
ST. KITTS      LGT RAIN  75  72  88 NE14      30.03S
ST. MAARTEN    PTCLDY    77  68  73 NE14      30.06R

$$





U.S. Dept. of Commerce
NOAA National Weather Service
1325 East West Highway
Silver Spring, MD 20910
E-mail: w-nws.webmaster@noaa.gov
Page last modified: May 16, 2007
NATIONAL WEATHER SERVICE: for Safety, for Work, for Fun - FOR LIFE